World > North America > United States > Missouri > Kinloch

Hourly Kinloch, MO Regional Weather

Feedback E-mail the Weather

Quick WX

Kinloch, MO Weather Maps

°F °C°F °C
Kinloch Weather Map
UTC Time: 8/15/2022, 19:24
Your Time:

Kinloch, MO Regional Weather

Expires:202208152000;;094316
ASUS43 KEAX 151915
RWREAX

WEATHER ROUNDUP FOR EASTERN KANSAS AND NORTHWEST MISSOURI
NATIONAL WEATHER SERVICE KANSAS CITY/PLEASANT HILL MO
200 PM CDT MON AUG 15 2022


MOZ041-047>049-056>058-063>065-088>090-097-152000-
...EASTERN AND SOUTHERN MISSOURI...
  
CITY           SKY/WX    TMP DP  RH WIND       PRES   REMARKS
ST. LOUIS INTL PTSUNNY   79  64  60 N6        30.03F                  
SPIRIT OF STL  CLOUDY    77  63  61 N6        30.02F                  
COLUMBIA       PTSUNNY   79  63  57 NE10      30.04F                  
JEFFERSON CITY CLOUDY    78  65  63 E9        30.02F                  
MEXICO         PTSUNNY   75  64  69 NE7       30.05S                  
HANNIBAL       PTSUNNY  N/A N/A N/A N5        30.06F                  
ROLLA          MOSUNNY   79  65  62 N8        30.05S                  
LEBANON        MOSUNNY   84  63  48 NE8       30.03F                  
OSAGE BEACH    MOSUNNY  N/A N/A N/A E7          N/A                   
SPRINGFIELD    SUNNY     92  69  47 VRB3      29.97F HX  97           
BRANSON        SUNNY     93  68  43 NW7       30.00F HX  97           
JOPLIN         SUNNY     98  62  30 VRB3      29.95F HX  99           
WEST PLAINS    MOSUNNY   87  69  54 E6        30.01F HX  91           
SIKESTON       MOSUNNY   82  68  61 N3        29.97S                  

$$


SKY/WX - Weather  TMP - Temperature  DP - Dew Point  RH - Humidity
WIND - Wind Direction/Speed PRES - Barometric Pressure VSB - Visibility
WCI - Wind Chill Index E13G22 Wind - East Wind 13 mph/Gusts of 22 mph

Trending Headlines

Kinloch Radar Loop



Kinloch Quick Facts


National Two Day Weather Forecast


E-mail the Kinloch Weather Forecast

Voice your opinion or tell us about page issues...